GFSFLT2_2pvu_pres_273.txt.gz
Presure
110 104 109 102 105 102 107 96 139 142 125 129 99 125 130 94 158 158 106 144 160 86 119 135 167 155 167 113 189 179 172 184
102 116 130 107 109 113 129 109 116 89 125 140 133 117 113 130 183 116 104 130 199 186 175 178 114 170 171 182 180 177 171 191
101 129 135 126 97 111 130 127 164 116 160 175 148 160 94 126 205 104 196 201 149 132 179 179 151 189 176 183 181 181 167 184
129 89 108 111 148 92 110 147 192 130 106 117 143 119 204 104 230 171 221 202 155 184 184 197 181 187 178 173 178 179 168 156
129 124 132 113 166 148 138 154 179 87 91 119 118 170 171 184 118 217 197 209 206 172 190 186 179 193 181 176 175 178 172 176
119 153 164 140 121 162 161 148 206 101 97 191 163 190 117 182 184 208 188 166 223 189 102 183 175 163 174 171 174 171 168 178
116 140 166 114 137 137 209 205 218 191 216 195 213 211 210 201 151 134 180 171 202 178 171 174 127 193 173 179 173 158 168 162
142 190 140 144 203 231 313 146 307 279 273 248 248 225 218 226 219 188 134 84 164 186 176 174 170 180 184 175 169 175 170 137
144 140 184 214 247 230 224 220 230 274 293 224 195 127 233 224 223 197 113 200 194 191 180 173 188 119 186 174 170 177 174 121
155 222 243 243 235 202 219 254 293 282 276 268 228 242 249 222 220 212 105 204 191 183 188 198 182 176 185 182 169 168 180 163
201 217 220 288 288 282 282 295 285 285 286 279 266 261 279 226 241 215 155 213 182 189 210 198 193 180 170 181 172 175 182 164
237 258 288 135 276 149 328 415 425 356 311 280 275 272 258 290 265 229 226 213 182 181 190 198 184 184 162 180 165 175 171 174
211 72 274 270 283 367 227 418 431 436 453 321 286 269 271 251 280 255 205 217 199 182 182 188 183 194 181 181 173 175 164 128
280 272 199 266 402 458 438 420 409 424 426 436 432 286 269 272 250 269 238 226 204 190 187 189 198 192 194 181 176 170 181 167
275 267 261 302 306 435 427 261 410 403 415 412 419 416 283 268 259 278 242 228 209 193 198 198 202 193 202 183 183 163 166 160
273 268 255 291 289 368 459 398 453 391 393 400 417 409 386 288 273 259 269 231 211 228 187 202 178 197 192 168 178 148 187 169
270 263 287 286 279 317 429 416 391 419 375 388 400 407 404 350 273 262 276 244 222 239 197 195 190 197 190 191 184 175 173 176
262 252 297 276 268 358 356 458 395 427 393 366 384 399 400 396 112 179 260 270 250 217 220 207 191 202 194 194 192 186 175 172
252 290 286 270 263 353 351 462 434 372 410 385 373 315 361 398 384 273 265 253 234 223 249 122 194 205 201 207 161 181 174 177
250 284 280 268 261 352 349 469 444 394 367 381 382 373 383 390 396 327 268 259 263 162 235 196 207 200 208 211 179 179 168 155

GFSFLT2_2pvu_pres_279.txt.gz
Presure
111 118 103 116 116 129 119 106 130 99 96 130 140 129 145 94 100 140 141 96 139 149 191 181 141 187 172 192 153 188 167 183
118 102 140 124 137 130 140 97 93 142 123 132 105 82 141 124 153 112 109 135 166 134 187 182 128 183 179 188 184 168 189 179
105 115 113 122 117 148 132 152 153 141 123 148 123 102 141 124 227 224 162 210 188 190 182 173 172 153 153 179 174 162 181 181
125 141 136 147 135 116 122 138 130 96 138 227 227 220 209 220 146 213 204 192 188 181 175 196 177 113 173 159 167 133 180 126
106 108 98 118 127 85 134 127 168 206 222 206 201 234 220 118 93 212 208 204 221 211 217 214 93 160 166 160 166 153 165 180
105 123 137 94 95 168 189 172 196 152 217 217 204 240 132 238 241 228 220 192 231 175 239 209 163 129 172 167 137 182 179 179
165 139 124 138 238 190 210 228 228 226 255 234 246 224 236 78 250 225 219 201 192 203 162 199 196 186 176 176 100 185 174 175
137 165 193 187 90 219 233 217 221 214 241 224 284 314 306 297 245 195 176 211 246 206 181 174 208 191 189 187 180 184 175 175
214 160 211 213 234 218 228 99 265 166 213 261 131 286 268 299 294 289 294 238 198 222 194 182 216 196 182 174 182 176 176 174
163 188 230 233 232 218 253 245 233 208 261 314 320 257 302 298 214 285 275 303 241 241 241 236 212 183 186 181 174 173 166 168
214 234 224 225 221 217 80 280 278 216 283 256 251 314 306 299 297 283 275 267 89 255 252 226 156 185 178 179 179 171 179 172
231 224 238 255 255 153 282 310 316 318 315 266 293 353 339 336 327 299 274 261 236 260 253 235 210 199 179 170 176 186 164 169
229 218 252 223 216 297 292 330 335 384 411 406 399 331 322 316 312 322 307 256 252 188 236 225 129 195 193 170 177 184 169 185
256 234 275 293 276 302 311 320 364 384 411 412 397 368 332 309 314 447 462 320 250 258 227 231 201 198 189 176 176 180 181 175
241 230 283 263 294 298 338 352 362 374 405 397 402 412 407 382 425 432 436 317 282 262 234 241 200 202 190 184 185 179 174 173
247 269 291 282 284 294 297 349 358 385 409 402 410 518 488 437 416 411 422 438 333 254 268 250 212 199 191 182 185 191 183 174
245 288 280 287 308 304 313 332 358 406 409 530 509 496 462 416 453 214 411 420 341 248 251 249 221 194 200 184 105 188 173 168
281 279 267 289 292 293 297 328 354 404 403 515 478 469 442 400 438 387 405 405 379 275 270 204 234 205 188 86 142 194 194 173
283 268 274 283 282 288 296 306 341 404 408 497 459 442 428 387 426 384 397 395 403 306 285 259 243 213 192 198 168 205 182 200
275 252 285 282 279 284 289 301 323 400 482 483 447 422 415 379 407 388 380 387 392 356 280 258 257 218 190 208 193 195 172 199

GFSFLT2_2pvu_pres_285.txt.gz
Presure
123 111 138 126 111 127 147 106 131 125 127 98 115 114 153 117 239 207 190 217 202 116 90 199 187 185 140 179 208 161 191 184
123 121 130 109 114 131 133 121 99 148 167 130 127 106 137 222 219 230 134 223 208 213 179 180 126 196 178 192 179 170 190 100
138 133 138 116 158 126 125 96 160 156 111 225 128 229 223 228 225 183 233 238 222 211 193 192 169 202 196 110 185 182 153 175
120 117 145 125 142 156 107 179 168 110 224 171 160 190 226 236 214 223 217 228 135 216 204 215 157 205 236 184 190 183 175 173
136 125 110 138 88 142 102 176 239 96 226 212 122 246 259 256 240 248 228 229 239 213 215 202 218 184 216 199 179 178 175 183
143 139 159 82 176 156 220 238 115 234 253 237 280 281 276 230 278 281 272 252 244 264 260 242 223 183 209 198 184 176 176 156
150 108 135 183 153 225 238 224 230 259 282 278 250 183 260 255 118 260 261 229 266 240 242 163 208 195 199 210 194 181 177 141
115 146 168 87 197 229 140 216 277 269 236 271 243 251 126 301 343 363 309 309 254 208 227 243 234 199 217 216 199 184 189 187
93 97 99 199 237 222 237 269 260 212 265 324 315 316 315 319 306 340 377 343 335 305 270 206 247 220 185 100 211 191 174 175
95 155 232 215 220 269 261 234 263 287 272 300 316 325 326 332 356 403 465 460 350 344 272 251 248 242 200 113 213 191 184 174
142 221 249 230 267 244 226 255 272 291 312 298 295 321 348 367 616 571 477 456 451 350 299 257 217 261 230 224 207 199 188 183
216 215 169 260 249 204 252 244 291 287 287 289 304 322 355 568 554 563 486 451 435 373 349 272 252 248 239 90 208 204 84 185
211 238 268 256 252 249 274 278 278 289 286 291 311 341 461 519 510 524 469 440 423 421 343 277 244 251 256 234 192 115 193 167
249 264 181 247 244 297 270 278 275 278 280 288 318 359 513 493 481 500 460 410 418 423 309 335 244 238 238 237 210 189 194 194
263 246 216 233 271 272 273 269 266 279 277 289 323 385 503 473 460 479 501 428 412 417 336 327 240 245 243 223 220 212 206 195
226 249 232 274 280 248 267 278 272 282 282 303 325 441 494 455 444 457 478 419 412 415 338 321 277 253 247 237 207 223 191 193
248 237 254 257 261 264 256 264 258 280 283 306 327 455 492 441 432 442 454 457 414 408 410 315 307 231 257 243 213 223 212 196
240 246 259 273 270 272 259 264 264 266 289 305 336 469 500 427 422 432 436 441 403 405 413 319 218 226 229 231 227 223 187 194
276 266 248 229 258 255 256 257 270 268 290 307 345 486 518 417 411 423 420 424 445 433 360 316 255 227 252 242 225 209 206 183
267 242 240 254 242 249 250 258 255 269 284 309 346 504 528 415 403 413 403 415 437 422 337 309 319 278 253 243 213 226 212 199

GFSFLT2_2pvu_pres_291.txt.gz
Presure
130 136 118 120 159 138 123 108 150 143 117 96 131 148 143 207 123 94 242 140 204 194 227 225 216 194 198 110 203 123 122 195
139 120 135 152 133 103 126 124 122 144 153 105 145 100 225 248 73 123 79 193 105 131 71 150 216 130 130 221 202 189 197 202
155 133 139 129 114 97 128 105 139 165 97 97 105 176 205 139 232 201 230 280 105 146 218 252 253 252 258 228 163 142 210 197
104 123 112 123 165 133 140 134 134 92 193 212 163 125 174 229 180 211 287 257 250 328 153 267 266 219 271 242 182 206 153 172
104 143 153 114 77 146 133 172 156 97 208 237 236 230 213 238 305 281 300 290 309 316 340 391 193 256 99 246 215 206 208 174
76 155 135 73 145 129 130 103 207 171 235 215 224 207 281 296 291 293 290 285 286 292 310 338 385 246 226 264 222 208 208 194
152 125 121 129 114 165 171 218 238 229 225 225 209 238 296 292 292 292 290 291 290 158 303 185 341 381 252 268 225 211 155 199
104 107 146 143 152 170 218 237 216 227 218 204 299 286 280 278 279 282 282 285 289 212 303 225 227 368 143 260 225 213 87 180
161 90 150 163 169 235 225 214 225 216 293 198 283 275 273 280 281 279 277 283 308 318 130 320 215 340 258 257 254 220 203 193
141 161 157 115 231 226 218 246 302 232 206 270 279 284 290 289 289 300 317 297 366 521 555 462 375 360 372 250 260 224 243 184
145 136 177 215 222 212 270 216 210 256 268 257 282 295 298 289 308 313 379 536 502 492 496 533 578 551 370 261 270 228 207 203
158 153 172 216 234 215 257 204 279 257 272 271 286 299 296 306 318 405 524 485 462 460 494 527 552 577 448 266 234 232 230 205
153 185 232 213 223 217 189 274 254 246 278 266 275 299 302 316 443 530 484 447 443 473 495 506 519 537 553 269 235 224 244 210
191 185 206 233 291 223 277 249 240 273 277 270 283 303 308 344 539 496 440 429 448 471 467 470 476 488 507 274 235 213 236 217
219 221 267 270 248 237 245 240 259 265 268 268 286 307 324 542 519 447 420 431 449 457 423 430 444 461 480 264 254 228 234 201
237 235 231 257 252 240 235 243 257 259 258 269 286 308 492 534 467 416 417 430 441 413 411 413 426 438 285 266 246 227 226 218
208 206 281 256 247 248 249 257 254 252 260 268 284 320 544 508 429 406 417 422 429 403 401 402 413 425 275 284 248 232 223 196
178 240 186 255 236 234 237 238 250 250 246 269 284 326 533 462 407 407 406 413 425 396 391 395 403 417 254 251 241 233 201 205
218 211 204 238 248 231 229 232 236 246 243 262 280 323 517 432 399 389 397 409 422 395 385 385 395 399 257 251 247 235 221 211
261 209 258 228 233 226 229 232 239 245 251 255 282 310 499 415 397 382 395 411 416 390 383 382 387 332 250 240 246 227 218 192